Home   Weather   Eisenach   Past weeks

Flag for Germany Past Weather in Eisenach, Thuringia, Germany — Yesterday and Last 2 Weeks

Now
59 °F

Clear.


Feels Like: 57 °F
Forecast: 51 / 76 °F
Wind: 9 mph from Southwest

Location: Erfurt-Bindersleben

Current Time: Sep 1, 2016 at 7:37:04 AM

Latest Report: Sep 1, 2016 at 7:20 AM


Visibility: 10 mi

Pressure: 30.15 "Hg

Humidity: 82%

Dew Point: 54 °F

Location of EisenachLocation

Past Weather in Eisenach — Graph

°F

Eisenach Temperature Yesterday

Maximum temperature yesterday: 79 °F (at 2:50 PM)
Minimum temperature yesterday: 54 °F (at 2:50 AM)
Average temperature yesterday: 66 °F

High & Low Weather Summary for the Past Weeks

 TemperatureHumidityPressure
High93 °F (Aug 26, 4:20 PM)100% (Aug 18, 6:20 AM)30.36 "Hg (Aug 18, 6:20 AM)
Low43 °F (Aug 18, 6:20 AM)17% (Aug 25, 2:20 PM)29.80 "Hg (Aug 18, 4:50 PM)
Average68 °F61%30.10 "Hg
* Reported Aug 17 6:20 AM — Sep 1 6:20 AM, Eisenach, Weather by CustomWeather, © 2016

Note: Actual official high and low records may vary slightly from our data, if they occured in-between our weather recording intervals... More about our weather records

Advertising

Eisenach Weather History for the Previous 24 Hours

Scroll right to see more
 ConditionsComfort  
Time TempWeatherWind HumidityBarometerVisibility
6:20 AM
Thu, Sep 1
59 °FClear.9 mph82%30.15 "Hg10 mi
5:50 AM57 °FClear.10 mph88%30.15 "Hg10 mi
5:20 AM57 °FClear.10 mph82%30.15 "Hg10 mi
4:50 AM54 °FClear.10 mph88%30.15 "Hg10 mi
4:20 AM55 °FClear.8 mph82%30.15 "Hg10 mi
3:50 AM55 °FClear.9 mph82%30.15 "Hg10 mi
3:20 AM55 °FClear.9 mph82%30.15 "Hg10 mi
2:50 AM55 °FClear.9 mph82%30.15 "Hg10 mi
2:20 AM57 °FClear.9 mph77%30.15 "Hg10 mi
1:50 AM61 °FClear.8 mph68%30.15 "Hg10 mi
1:20 AM61 °FClear.8 mph68%30.15 "Hg10 mi
12:50 AM63 °FClear.7 mph64%30.15 "Hg10 mi
12:20 AM63 °FClear.7 mph64%30.12 "Hg10 mi
11:50 PM
Wed, Aug 31
64 °FClear.8 mph64%30.15 "Hg10 mi
11:20 PM63 °FClear.7 mph68%30.15 "Hg10 mi
10:50 PM66 °FClear.5 mph60%30.12 "Hg10 mi
10:20 PM66 °FClear.7 mph60%30.12 "Hg10 mi
9:50 PM68 °FClear.8 mph56%30.12 "Hg10 mi
9:20 PM68 °FClear.9 mph53%30.12 "Hg10 mi
8:50 PM72 °FSunny.6 mph47%30.12 "Hg10 mi
8:20 PM72 °FSunny.6 mph47%30.12 "Hg10 mi
7:50 PM73 °FSunny.7 mph44%30.12 "Hg10 mi
7:20 PM75 °FPassing clouds.3 mph44%30.12 "HgN/A
6:50 PM77 °FPassing clouds.3 mph39%30.12 "HgN/A
6:20 PM79 °FPassing clouds.3 mph32%30.12 "HgN/A
5:50 PM79 °FSunny.2 mph30%30.12 "Hg10 mi
5:20 PM79 °FPassing clouds.5 mph30%30.12 "HgN/A
4:50 PM79 °FSunny.3 mph32%30.12 "Hg10 mi
4:20 PM79 °FSunny.6 mph32%30.12 "Hg10 mi
3:50 PM79 °FPassing clouds.6 mph30%30.12 "HgN/A
3:20 PM79 °FPassing clouds.6 mph30%30.15 "HgN/A
2:50 PM79 °FSunny.5 mph32%30.15 "Hg10 mi
2:20 PM77 °FPassing clouds.6 mph34%30.18 "HgN/A
1:50 PM75 °FPassing clouds.7 mph36%30.18 "HgN/A
1:20 PM75 °FSunny.5 mph36%30.18 "Hg10 mi
12:50 PM75 °FPassing clouds.5 mph36%30.18 "HgN/A
12:20 PM73 °FSunny.5 mph38%30.18 "Hg10 mi
11:50 AM72 °FPassing clouds.6 mph44%30.21 "HgN/A
11:20 AM68 °FPassing clouds.5 mph53%30.21 "HgN/A
10:50 AM66 °FPassing clouds.5 mph52%30.21 "HgN/A
10:20 AM63 °FPassing clouds.5 mph59%30.21 "HgN/A
9:50 AM61 °FPassing clouds.5 mph63%30.21 "HgN/A
9:20 AM59 °FPassing clouds.5 mph68%30.21 "HgN/A
8:50 AM57 °FSunny.3 mph72%30.21 "Hg10 mi
8:20 AM61 °FSunny.1 mph59%30.24 "Hg10 mi
7:50 AM55 °FSunny.1 mph72%30.24 "Hg10 mi
7:20 AM54 °FClear.2 mph72%30.24 "Hg10 mi
Weather by CustomWeather, © 2016

See weather overviewHow to use our weather pages